GW5033 Weather Reports


time (UTC)temp
F
wind
direction
speed
knots
gust
knots
rain 1hr
in
rain 24hr
in
rain mn
in
humidity
%
barometer
mb
20260504110506 44 257 2.6 6.1 0.00 0.01 0.01 76 1007.1
20260504100503 43 273 0.9 7.0 0.00 0.01 0.01 83 1007.2
20260504081540 42 278 2.6 6.1 0.00 0.00 0.00 81 1007.4
20260504081011 42 231 4.3 7.0 0.00 0.00 0.00 81 1007.4
20260504080510 41 274 1.7 7.0 0.00 0.00 0.00 81 1007.4
20260504050506 42 276 2.6 7.0 0.00 0.00 0.00 62 1007.9
20260504050023 42 288 0.9 7.0 0.00 0.00 0.00 61 1007.9
20260504045505 42 284 3.5 7.0 0.00 0.00 0.00 59 1007.9
20260504045006 42 237 2.6 5.2 0.00 0.00 0.00 57 1007.9
20260504044525 42 252 1.7 5.2 0.00 0.00 0.00 57 1008.0
20260504044012 42 271 1.7 5.2 0.00 0.00 0.00 55 1008.0
20260504043508 42 257 1.7 5.2 0.00 0.00 0.00 54 1008.0
20260504043037 42 272 0.9 5.2 0.00 0.00 0.00 53 1008.1
20260504042510 42 266 2.6 7.0 0.00 0.00 0.00 52 1008.1
20260504042014 42 252 3.5 9.6 0.00 0.00 0.00 52 1008.1
20260504041527 42 290 2.6 9.6 0.00 0.00 0.00 52 1008.1
20260504041005 42 266 2.6 6.1 0.00 0.00 0.00 52 1008.2
20260504040508 42 285 2.6 5.2 0.00 0.00 0.00 54 1008.2
20260504040022 42 252 2.6 5.2 0.00 0.00 0.00 53 1008.2
20260504035505 41 270 1.7 3.5 0.00 0.00 0.00 51 1008.2
20260504035006 41 18 1.7 3.5 0.00 0.00 0.00 51 1008.1
20260504034524 41 285 1.7 7.8 0.00 0.00 0.00 50 1008.2
20260504034003 41 198 2.6 7.8 0.00 0.00 0.00 51 1008.1
20260504033501 40 227 0.0 2.6 0.00 0.00 0.00 51 1008.1
20260504033008 40 242 0.0 2.6 0.00 0.00 0.00 52 1008.2
20260504032504 39 261 0.0 2.6 0.00 0.00 0.00 52 1008.2
20260504032004 39 242 0.0 1.7 0.00 0.00 0.00 52 1008.2
20260504031510 38 278 0.0 1.7 0.00 0.00 0.00 52 1008.1
20260504031005 39 133 0.0 1.7 0.00 0.00 0.00 53 1008.1
20260504030505 39 198 0.0 0.9 0.00 0.00 0.00 53 1008.2
20260504030024 38 112 0.0 0.9 0.00 0.00 0.00 54 1008.2
20260504025508 38 111 0.0 0.9 0.00 0.00 0.00 54 1008.2
20260504025005 38 111 0.0 0.9 0.00 0.00 0.00 54 1008.2
20260504024517 38 147 0.0 0.9 0.00 0.00 0.00 55 1008.2
20260504024007 38 147 0.0 0.0 0.00 0.00 0.00 54 1008.3
20260504023508 39 147 0.0 0.0 0.00 0.00 0.00 54 1008.3
20260504023022 39 212 0.0 1.7 0.00 0.00 0.00 53 1008.4
20260504022501 40 233 0.0 1.7 0.00 0.00 0.00 53 1008.4
20260504022003 39 271 0.0 0.9 0.00 0.00 0.00 54 1008.5
20260504021504 40 271 0.0 0.9 0.00 0.00 0.00 53 1008.5
20260504021003 40 259 0.0 2.6 0.00 0.00 0.00 53 1008.5
20260504020502 41 260 0.0 5.2 0.00 0.00 0.00 51 1008.5
20260504020014 41 280 1.7 5.2 0.00 0.00 0.00 51 1008.5
20260504015503 40 270 0.0 2.6 0.00 0.00 0.00 54 1008.5
20260504015006 40 225 0.0 2.6 0.00 0.00 0.00 53 1008.6
20260504014521 40 274 0.0 1.7 0.00 0.00 0.00 54 1008.6
20260504014005 41 263 0.0 3.5 0.00 0.00 0.00 54 1008.6
20260504013504 41 262 0.9 3.5 0.00 0.00 0.00 52 1008.5
20260504013032 40 256 0.9 3.5 0.00 0.00 0.00 52 1008.5
20260504012507 39 260 0.9 1.7 0.00 0.00 0.00 55 1008.5
20260504012007 39 279 0.0 0.9 0.00 0.00 0.00 56 1008.5
20260504011524 39 293 0.0 1.7 0.00 0.00 0.00 57 1008.4
20260504011008 39 293 0.0 1.7 0.00 0.00 0.00 55 1008.4
20260504010503 39 153 0.0 0.0 0.00 0.00 0.00 58 1008.3
20260504010007 39 153 0.0 0.0 0.00 0.00 0.00 58 1008.2
20260504005505 40 266 0.0 0.0 0.00 0.00 0.00 57 1008.1
20260504005006 40 266 0.0 0.0 0.00 0.00 0.00 56 1008.0
20260504004510 41 266 0.0 0.9 0.00 0.00 0.00 54 1008.0
20260504004006 42 267 0.0 1.7 0.00 0.00 0.00 53 1008.0
20260504003506 42 253 0.9 1.7 0.00 0.00 0.00 52 1008.0
20260504003016 42 256 0.9 1.7 0.00 0.00 0.00 51 1007.8
20260504002506 42 273 0.0 1.7 0.00 0.00 0.00 52 1007.9
20260504002006 43 264 0.9 1.7 0.00 0.00 0.00 51 1007.9
20260504001522 42 285 0.9 1.7 0.00 0.00 0.00 51 1007.8
20260504001007 43 280 0.0 0.9 0.00 0.00 0.00 50 1007.7
20260504000506 43 278 0.0 0.9 0.00 0.00 0.00 51 1007.7
20260504000024 43 278 0.0 0.9 0.00 0.00 0.00 50 1007.8
20260503235507 43 278 0.9 0.9 0.00 0.00 0.00 51 1007.7
20260503235007 43 278 0.9 0.9 0.00 0.00 0.00 51 1007.6
20260503234508 43 278 0.9 0.9 0.00 0.00 0.00 52 1007.6
20260503234004 44 274 0.9 0.9 0.00 0.00 0.00 54 1007.7
20260503233504 44 274 0.9 0.9 0.00 0.00 0.00 52 1007.6
20260503233018 44 274 0.0 0.9 0.00 0.00 0.00 54 1007.6
20260503232502 44 274 0.0 1.7 0.00 0.00 0.00 53 1007.6
20260503232010 44 274 0.0 1.7 0.00 0.00 0.00 52 1007.5
20260503231519 44 276 0.0 0.9 0.00 0.00 0.00 53 1007.5
20260503231006 44 276 0.0 0.9 0.00 0.00 0.00 51 1007.5
20260503230509 44 276 0.0 1.7 0.00 0.01 0.00 51 1007.5
20260503230020 44 276 0.0 1.7 0.00 0.01 0.00 51 1007.5
20260503225506 44 280 0.9 0.9 0.00 0.01 0.00 51 1007.5
20260503225010 44 280 0.0 1.7 0.00 0.01 0.00 53 1007.5
20260503224525 44 280 0.0 1.7 0.00 0.01 0.00 50 1007.5
20260503224009 44 262 0.0 2.6 0.00 0.01 0.00 53 1007.6
20260503223509 44 247 0.9 2.6 0.00 0.01 0.00 50 1007.6
20260503223007 44 287 0.9 2.6 0.00 0.01 0.00 50 1007.5
20260503222504 45 281 1.7 1.7 0.00 0.02 0.00 51 1007.5
20260503222006 45 269 0.9 2.6 0.00 0.02 0.00 50 1007.5
20260503221510 45 278 0.0 2.6 0.00 0.02 0.00 50 1007.5
20260503221009 45 281 0.9 2.6 0.00 0.02 0.00 47 1007.5
20260503220504 45 274 0.9 2.6 0.00 0.02 0.00 48 1007.5
20260503220016 45 264 0.9 3.5 0.00 0.02 0.00 47 1007.5
20260503215506 45 295 0.9 3.5 0.00 0.02 0.00 50 1007.4
20260503215009 45 314 0.9 2.6 0.00 0.02 0.00 47 1007.4
20260503214522 46 281 0.9 2.6 0.00 0.02 0.00 47 1007.4
20260503214007 46 295 0.9 5.2 0.00 0.02 0.00 47 1007.4
20260503213507 46 287 1.7 5.2 0.00 0.02 0.00 46 1007.3
20260503213025 46 115 0.9 4.3 0.00 0.02 0.00 47 1007.4
20260503212507 45 300 1.7 4.3 0.00 0.02 0.00 46 1007.4
20260503212010 45 304 1.7 4.3 0.00 0.02 0.00 48 1007.4
20260503211526 45 231 0.0 3.5 0.00 0.02 0.00 47 1007.3
20260503211004 45 293 1.7 3.5 0.00 0.02 0.00 48 1007.3
20260503210503 46 322 0.9 3.5 0.00 0.02 0.00 48 1007.3
20260503210014 45 242 1.7 3.5 0.00 0.02 0.00 48 1007.3
20260503205506 45 288 0.9 2.6 0.00 0.02 0.00 49 1007.3
20260503205007 45 311 0.0 5.2 0.00 0.02 0.00 51 1007.3
20260503204520 45 282 1.7 5.2 0.00 0.02 0.00 51 1007.3
20260503204008 44 276 2.6 4.3 0.00 0.02 0.00 52 1007.4
20260503203511 44 285 0.9 4.3 0.00 0.02 0.00 50 1007.4
20260503203042 44 303 2.6 4.3 0.00 0.02 0.00 50 1007.4
20260503202507 44 9 2.6 4.3 0.00 0.02 0.00 49 1007.4
20260503202011 45 281 0.9 4.3 0.00 0.02 0.00 51 1007.4
20260503201526 44 297 0.9 4.3 0.00 0.02 0.00 52 1007.4
20260503201009 44 338 1.7 5.2 0.00 0.02 0.00 51 1007.4
20260503200512 44 352 0.9 5.2 0.00 0.02 0.00 51 1007.5
20260503200026 44 283 0.9 5.2 0.00 0.02 0.00 52 1007.6
20260503195505 44 224 2.6 5.2 0.00 0.02 0.00 52 1007.5
20260503195005 43 328 0.9 5.2 0.00 0.02 0.00 55 1007.6
20260503194531 43 291 1.7 5.2 0.00 0.02 0.00 51 1007.7
20260503194006 44 293 1.7 5.2 0.00 0.02 0.00 53 1007.8
20260503193508 44 298 3.5 6.1 0.00 0.02 0.00 52 1007.8
20260503193020 44 301 2.6 7.0 0.00 0.02 0.00 51 1007.8
20260503192508 44 281 4.3 7.0 0.00 0.02 0.00 53 1007.8
20260503192007 44 286 2.6 7.0 0.00 0.02 0.00 51 1007.9
20260503191524 44 285 2.6 7.0 0.00 0.02 0.00 52 1007.9
20260503191009 44 264 2.6 4.3 0.00 0.02 0.00 53 1007.9
20260503190508 45 292 1.7 5.2 0.00 0.02 0.00 51 1008.0
20260503190036 45 335 0.9 5.2 0.00 0.02 0.00 52 1008.0
20260503185506 45 311 0.9 2.6 0.00 0.02 0.00 57 1008.0
20260503185005 43 283 0.9 4.3 0.00 0.02 0.00 56 1008.1
20260503184522 43 289 0.9 4.3 0.00 0.02 0.00 57 1008.1
20260503184006 42 287 2.6 5.2 0.00 0.02 0.00 54 1008.1
20260503183505 42 281 2.6 6.1 0.00 0.02 0.00 57 1008.1
20260503183017 42 281 1.7 6.1 0.00 0.02 0.00 55 1008.1
20260503182506 42 273 2.6 5.2 0.00 0.02 0.00 55 1008.1
20260503182007 42 288 3.5 9.6 0.00 0.02 0.00 53 1008.0
20260503181520 43 295 5.2 9.6 0.00 0.02 0.00 52 1008.0
20260503181008 43 272 3.5 7.8 0.00 0.02 0.00 52 1008.0
20260503180507 44 278 0.9 7.0 0.00 0.02 0.00 51 1008.1
20260503180026 44 9 1.7 5.2 0.00 0.02 0.00 51 1008.1
20260503175508 43 248 1.7 7.0 0.00 0.02 0.00 54 1008.1
20260503175003 43 293 4.3 7.0 0.00 0.02 0.00 52 1008.1
20260503174509 43 294 3.5 6.1 0.00 0.02 0.00 52 1008.1
20260503174004 43 279 3.5 7.8 0.00 0.02 0.00 53 1008.1
20260503173503 43 325 4.3 7.8 0.00 0.02 0.00 52 1008.2
20260503173012 43 311 0.9 2.6 0.00 0.02 0.00 54 1008.2
20260503172505 43 277 0.9 7.8 0.00 0.02 0.00 53 1008.3
20260503172011 43 347 1.7 7.8 0.00 0.02 0.00 52 1008.3
20260503171516 43 290 3.5 7.0 0.00 0.02 0.00 55 1008.2
20260503171007 43 312 2.6 7.0 0.00 0.02 0.00 55 1008.2
20260503170506 43 272 1.7 6.1 0.00 0.02 0.00 56 1008.4
20260503151004 44 262 3.5 9.6 0.00 0.02 0.00 48 1008.7
20260503150504 45 304 4.3 10.4 0.00 0.02 0.00 46 1008.9
20260503131007 38 321 2.6 5.2 0.00 0.02 0.00 77 1009.6
20260503130513 38 320 2.6 6.1 0.00 0.02 0.00 77 1009.6